Regional Weather Roundup
Issued by NWS

Home | Current Version | Previous Version | Text Only | Print | Product List | Glossary On
Versions: 1 2 3 4 5 6 7 8 9 10 11 12 13 14 15 16 17 18 19 20 21 22 23 24 25 26 27 28 29 30 31 32 33 34 35 36 37 38 39 40 41 42 43 44 45 46 47 48 49 50
682
ASUS45 KCYS 280410
RWRWY

WYOMING REGIONAL WEATHER ROUNDUP
NATIONAL WEATHER SERVICE CHEYENNE WY
1000 PM MDT THU JUL 27 2017

NOTE:  "FAIR" INDICATES FEW OR NO CLOUDS BELOW 12,000 FEET
WITH NO SIGNIFICANT WEATHER AND/OR OBSTRUCTIONS TO VISIBILITY.

WYZ001-280500-
YELLOWSTONE NATIONAL PARK

CITY           SKY/WX    TMP DP  RH WIND       PRES   REMARKS
LK YELLOWSTONE   N/A     50  46  86 CALM      30.37F
W YELLOWSTONE  NOT AVBL

$$
WYZ002>013-054>058-071-098>099-280500-
NORTHERN WYOMING

CITY           SKY/WX    TMP DP  RH WIND       PRES   REMARKS
JACKSON        FAIR      56  50  80 N3        30.30R
CODY           FAIR      65  53  65 SW9G23    30.14F
GREYBULL       FAIR      80  44  27 NW15      30.01R
WORLAND        FAIR      72  49  44 S5        30.03R
SHERIDAN       FAIR      67  56  67 N10       30.09R
BUFFALO        FAIR      62  55  77 SW7       30.14R
GILLETTE       LGT RAIN  66  62  87 E8        30.10R
HULETT         FAIR      64  61  88 CALM      30.07R
NEWCASTLE      FAIR      64  48  55 SE6       30.09R

$$
WYZ014>020-022>026-101>103-280500-
CENTRAL WYOMING

CITY           SKY/WX    TMP DP  RH WIND       PRES   REMARKS
BIG PINEY      FAIR      58  45  62 NW9       30.29R
PINEDALE       FAIR      55  50  82 N8        30.30R
DUBOIS         FAIR      55  43  62 MISG      30.32R
LANDER         FAIR      65  49  56 SW9       30.18R
RIVERTON       MOCLDY    65  57  75 S10       30.15R
CASPER         FAIR      71  47  42 NW23G33   30.12R
DOUGLAS        FAIR      68  59  73 E8        30.10R

$$
WYZ021-027>030-104>119-280500-
SOUTHERN WYOMING

CITY           SKY/WX    TMP DP  RH WIND       PRES   REMARKS
EVANSTON       FAIR      64  46  52 N8        30.30S
KEMMERER         N/A     59  39  47 NW5       30.32R
FORT BRIDGER   FAIR      66  41  40 NW3       30.33R
ROCK SPRINGS   FAIR      68  43  40 NW9       30.26R
RAWLINS        MOCLDY    69  50  50 NW5       30.21R
SARATOGA       FAIR      63  50  63 S7        30.25R
LARAMIE        FAIR      63  48  58 S9        30.25R
CHEYENNE       FAIR      69  56  62 SW8       30.16S
TORRINGTON     FAIR      68  64  87 SE22G29   30.02R
PINE BLUFFS    FAIR      73  52  46 S15G21    30.11S

$$




USA.gov is the U.S. government's official web portal to all federal, state and local government web resources and services.